Louisville, KY

7:56 PM EDT on May 25, 2017 (GMT -0400)
Louisville International-Standiford

Weather History for KSDF - March, 2013

Change the Weather History Date:

Tuesday, March 19, 2013

  Actual Average Record
Temperature  
Mean Temperature 40 °F 49 °F  
Max Temperature 49 °F 59 °F 84 °F (2012)
Min Temperature 31 °F 39 °F 12 °F (1923)
Degree Days  
Heating Degree Days 25 16  
Month to date heating degree days 448 367  
Since 1 July heating degree days 3530 3608  
Cooling Degree Days 0 0  
Month to date cooling degree days 0 0  
Year to date cooling degree days 0 0  
Moisture  
Dew Point 23 °F    
Average Humidity 54    
Maximum Humidity 85    
Minimum Humidity 23    
Precipitation  
Precipitation 0.00 in 0.13 in 5.25 in (1943)
Month to date precipitation 3.60 2.47  
Year to date precipitation 10.62 8.89  
Snow  
Snow 0.00 in 0.10 in 6.50 in (1996)
Month to date snowfall 1.0 1.1  
Since 1 July snowfall 9.1 12.1  
Snow Depth 0.00 in    
Sea Level Pressure  
Sea Level Pressure 30.08 in    
Wind  
Wind Speed 13 mph (West)    
Max Wind Speed 26 mph    
Max Gust Speed 32 mph    
Visibility 10 miles    
Events      
T = Trace of Precipitation, MM = Missing Value Source: NWS Daily Summary

Daily Weather History Graph

Daily Weather History Graph

Search for Another Location

Airport or City:

Trip Planner

Search our weather history database for the weather conditions in past years. The results will help you decide how hot, cold, wet, or windy it might be!

Date:

Astronomy

Mar. 19, 2013 Rise Set
Actual Time 7:47 AM EDT 7:54 PM EDT
Civil Twilight 7:21 AM EDT 8:20 PM EDT
Nautical Twilight 6:50 AM EDT 8:51 PM EDT
Astronomical Twilight 6:19 AM EDT 9:22 PM EDT
Moon 12:42 PM EDT (3/19) 2:35 AM EDT (3/19)
Length of Visible Light 12h 59m
Length of Day
12h 06m
Waxing Crescent, 49% of the Moon is Illuminated
Mar 19
Waxing Crescent
Mar 19
First Quarter
Mar 27
Full
Apr 3
Last Quarter
Apr 10
New

Hourly Weather History & Observations

Time (EDT) Temp. Windchill Dew Point Humidity Pressure Visibility Wind Dir Wind Speed Gust Speed Precip Events Conditions
12:56 AM 39.9 °F 36.7 °F 35.1 °F 83% 29.92 in 10.0 mi SSW 4.6 mph - N/A   Clear
1:56 AM 39.9 °F 35.1 °F 35.1 °F 83% 29.94 in 10.0 mi SW 6.9 mph - N/A   Clear
2:56 AM 39.9 °F 32.1 °F 35.1 °F 83% 29.96 in 10.0 mi WSW 13.8 mph - N/A   Partly Cloudy
3:28 AM 39.2 °F 31.2 °F 35.6 °F 87% 29.96 in 10.0 mi West 13.8 mph - N/A   Mostly Cloudy
3:56 AM 39.0 °F 31.4 °F 34.0 °F 82% 29.97 in 10.0 mi West 12.7 mph - N/A   Mostly Cloudy
3:59 AM 39.2 °F 31.6 °F 33.8 °F 81% 29.97 in 10.0 mi West 12.7 mph - N/A   Partly Cloudy
4:56 AM 37.9 °F 29.6 °F 32.0 °F 79% 29.99 in 10.0 mi WNW 13.8 mph - N/A   Scattered Clouds
5:56 AM 35.1 °F 25.5 °F 26.1 °F 70% 30.01 in 10.0 mi West 15.0 mph 24.2 mph N/A   Clear
6:56 AM 33.1 °F 24.9 °F 25.0 °F 72% 30.03 in 10.0 mi WNW 10.4 mph - N/A   Clear
7:56 AM 30.9 °F 24.3 °F 24.1 °F 76% 30.05 in 10.0 mi WNW 6.9 mph - N/A   Partly Cloudy
8:56 AM 33.1 °F 23.4 °F 23.0 °F 66% 30.07 in 10.0 mi West 13.8 mph 24.2 mph N/A   Partly Cloudy
9:56 AM 35.1 °F 23.8 °F 21.9 °F 59% 30.09 in 10.0 mi West 20.7 mph 25.3 mph N/A   Scattered Clouds
10:56 AM 37.9 °F 29.6 °F 23.0 °F 55% 30.10 in 10.0 mi West 13.8 mph - N/A   Partly Cloudy
11:56 AM 41.0 °F 32.2 °F 21.9 °F 47% 30.12 in 10.0 mi West 18.4 mph - N/A   Partly Cloudy
12:56 PM 44.1 °F 37.1 °F 21.0 °F 40% 30.13 in 10.0 mi West 15.0 mph 24.2 mph N/A   Partly Cloudy
1:56 PM 46.0 °F 39.3 °F 21.0 °F 37% 30.14 in 10.0 mi West 16.1 mph 27.6 mph N/A   Partly Cloudy
2:56 PM 46.9 °F - 18.0 °F 32% 30.13 in 10.0 mi WNW 21.9 mph 32.2 mph N/A   Partly Cloudy
3:56 PM 48.0 °F - 16.0 °F 28% 30.14 in 10.0 mi WNW 19.6 mph 29.9 mph N/A   Mostly Cloudy
4:56 PM 48.9 °F - 17.1 °F 28% 30.14 in 10.0 mi WNW 17.3 mph 26.5 mph N/A   Scattered Clouds
5:56 PM 48.0 °F - 12.9 °F 24% 30.14 in 10.0 mi NNW 13.8 mph 24.2 mph N/A   Mostly Cloudy
6:56 PM 46.0 °F 41.4 °F 15.1 °F 29% 30.15 in 10.0 mi WNW 9.2 mph - N/A   Mostly Cloudy
7:56 PM 44.1 °F 38.6 °F 12.9 °F 28% 30.17 in 10.0 mi WNW 10.4 mph - N/A   Mostly Cloudy
8:56 PM 42.1 °F 34.9 °F 15.1 °F 34% 30.17 in 10.0 mi West 13.8 mph - N/A   Mostly Cloudy
9:56 PM 39.9 °F 35.1 °F 16.0 °F 38% 30.18 in 10.0 mi West 6.9 mph - N/A   Mostly Cloudy
10:56 PM 39.0 °F 33.4 °F 17.1 °F 41% 30.18 in 10.0 mi West 8.1 mph - N/A   Mostly Cloudy
11:56 PM 37.0 °F 32.4 °F 18.0 °F 46% 30.18 in 10.0 mi West 5.8 mph - N/A   Scattered Clouds